When you browse on this site, cookies collect data to enhance your experience and personalize the content and advertising you see.
Visit our Privacy Policy to learn more. By continuing to use the site, you agree to this use of cookies and data.
  • In Hungary
  • List of Countries
  • For 7 days
  • Water Temperature
  • Weather Map
  • News
  • Weather Widgets
  • user-avatar
    Login

    Hourly Weather Strozewo

    Today, 13 December, Friday

    Time Temperature Precipitation Wind Pressure Humidity
    00:00 -2°C° 0 mm 4 mps 747 mmHg 92%
    01:00 -2°C° 0 mm 4 mps 746 mmHg 92%
    02:00 -2°C° 0 mm 4 mps 745 mmHg 90%
    03:00 -2°C° 0 mm 4 mps 744 mmHg 88%
    04:00 -2°C° 0 mm 5 mps 743 mmHg 85%
    05:00 -2°C° 0 mm 5 mps 742 mmHg 85%
    06:00 -2°C° 0 mm 5 mps 742 mmHg 84%
    07:00 -4°C° 0 mm 5 mps 741 mmHg 83%
    08:00 -2°C° 0 mm 5 mps 740 mmHg 84%
    09:00 -1°C° 0 mm 5 mps 740 mmHg 85%
    10:00 -2°C° 0 mm 6 mps 739 mmHg 85%
    11:00 -1°C° 0 mm 6 mps 738 mmHg 84%
    12:00 -1°C° 0 mm 6 mps 738 mmHg 83%
    13:00 +1°C° 0 mm 6 mps 737 mmHg 81%
    14:00 +1°C° 0 mm 5 mps 737 mmHg 83%
    15:00 0°C° 0 mm 4 mps 737 mmHg 85%
    16:00 0°C° 0 mm 4 mps 737 mmHg 87%
    17:00 0°C° 0 mm 4 mps 737 mmHg 89%
    18:00 0°C° 0 mm 4 mps 737 mmHg 90%
    19:00 0°C° 0 mm 4 mps 737 mmHg 92%
    20:00 -1°C° 0 mm 4 mps 737 mmHg 91%
    21:00 0°C° 0 mm 3 mps 738 mmHg 91%
    22:00 -1°C° 0 mm 3 mps 738 mmHg 90%
    23:00 -1°C° 0 mm 3 mps 738 mmHg 90%

    Tomorrow, 14 December, Saturday

    Time Temperature Precipitation Wind Pressure Humidity
    00:00 -1°C° 0 mm 4 mps 738 mmHg 89%
    01:00 -1°C° 0 mm 4 mps 738 mmHg 89%
    02:00 -1°C° 0 mm 4 mps 738 mmHg 88%
    03:00 0°C° 0 mm 5 mps 738 mmHg 87%
    04:00 +1°C° 0 mm 5 mps 738 mmHg 85%
    05:00 +1°C° 0.2 mm 5 mps 738 mmHg 89%
    06:00 +1°C° 0.2 mm 5 mps 738 mmHg 92%
    07:00 +1°C° 0.2 mm 4 mps 738 mmHg 95%
    08:00 +1°C° 0.2 mm 5 mps 739 mmHg 93%
    09:00 +2°C° 0.2 mm 5 mps 739 mmHg 91%
    10:00 +2°C° 0.2 mm 5 mps 739 mmHg 89%
    11:00 +2°C° 0 mm 5 mps 739 mmHg 85%
    12:00 +2°C° 0 mm 6 mps 739 mmHg 80%
    13:00 +3°C° 0 mm 6 mps 739 mmHg 76%
    14:00 +3°C° 0.6 mm 6 mps 739 mmHg 81%
    15:00 +3°C° 0.6 mm 6 mps 740 mmHg 87%
    16:00 +2°C° 0.6 mm 6 mps 740 mmHg 93%
    17:00 +2°C° 0.1 mm 6 mps 741 mmHg 86%
    18:00 +2°C° 0.1 mm 7 mps 742 mmHg 80%
    19:00 +2°C° 0.1 mm 7 mps 743 mmHg 74%
    20:00 +2°C° 0 mm 7 mps 744 mmHg 74%
    21:00 +2°C° 0 mm 6 mps 745 mmHg 74%
    22:00 +1°C° 0 mm 6 mps 746 mmHg 75%
    23:00 +1°C° 0 mm 6 mps 746 mmHg 78%

    Day after tomorrow, 15 December, Sunday

    Time Temperature Precipitation Wind Pressure Humidity
    00:00 +1°C° 0 mm 6 mps 747 mmHg 81%
    01:00 +2°C° 0 mm 7 mps 748 mmHg 85%
    02:00 +1°C° 0 mm 6 mps 748 mmHg 85%
    03:00 +1°C° 0 mm 5 mps 748 mmHg 85%
    04:00 0°C° 0 mm 4 mps 748 mmHg 85%
    05:00 0°C° 0 mm 5 mps 748 mmHg 85%
    06:00 +1°C° 0 mm 5 mps 748 mmHg 84%
    07:00 +1°C° 0 mm 6 mps 748 mmHg 84%
    08:00 +2°C° 0.7 mm 6 mps 747 mmHg 86%
    09:00 +3°C° 0.7 mm 7 mps 746 mmHg 89%
    10:00 +2°C° 0.7 mm 8 mps 746 mmHg 91%
    11:00 +4°C° 0.5 mm 8 mps 746 mmHg 83%
    12:00 +5°C° 0.5 mm 9 mps 747 mmHg 74%
    13:00 +6°C° 0.5 mm 10 mps 748 mmHg 65%
    14:00 +5°C° 0 mm 8 mps 749 mmHg 66%
    15:00 +4°C° 0 mm 7 mps 750 mmHg 66%
    16:00 +3°C° 0 mm 6 mps 751 mmHg 66%
    17:00 +3°C° 0 mm 6 mps 752 mmHg 68%
    18:00 +2°C° 0 mm 5 mps 753 mmHg 71%
    19:00 +1°C° 0 mm 5 mps 753 mmHg 73%
    20:00 +1°C° 0 mm 5 mps 754 mmHg 75%
    21:00 +1°C° 0 mm 5 mps 755 mmHg 76%
    22:00 +1°C° 0 mm 4 mps 755 mmHg 78%
    23:00 +1°C° 0 mm 4 mps 756 mmHg 79%

    16 December, Monday

    Time Temperature Precipitation Wind Pressure Humidity
    00:00 0°C° 0 mm 4 mps 756 mmHg 81%
    01:00 0°C° 0 mm 4 mps 756 mmHg 82%
    02:00 0°C° 0 mm 4 mps 756 mmHg 83%
    03:00 0°C° 0 mm 4 mps 756 mmHg 84%
    04:00 0°C° 0 mm 4 mps 757 mmHg 84%
    05:00 +1°C° 0 mm 4 mps 757 mmHg 86%
    06:00 +1°C° 0 mm 4 mps 756 mmHg 87%
    07:00 +1°C° 0 mm 4 mps 756 mmHg 88%
    08:00 +3°C° 0 mm 4 mps 756 mmHg 88%
    09:00 +3°C° 0 mm 4 mps 756 mmHg 88%
    10:00 +4°C° 0 mm 4 mps 757 mmHg 87%
    11:00 +5°C° 0 mm 4 mps 756 mmHg 86%
    12:00 +6°C° 0 mm 4 mps 756 mmHg 86%
    13:00 +6°C° 0 mm 4 mps 756 mmHg 85%
    14:00 +6°C° 0 mm 4 mps 756 mmHg 88%
    15:00 +7°C° 0 mm 3 mps 756 mmHg 91%
    16:00 +7°C° 0 mm 3 mps 756 mmHg 94%
    17:00 +7°C° 0 mm 3 mps 756 mmHg 94%
    18:00 +7°C° 0 mm 3 mps 756 mmHg 94%
    19:00 +7°C° 0 mm 3 mps 756 mmHg 95%
    20:00 +7°C° 0 mm 3 mps 756 mmHg 92%
    21:00 +7°C° 0 mm 3 mps 756 mmHg 89%
    22:00 +6°C° 0 mm 4 mps 756 mmHg 86%
    23:00 +5°C° 0 mm 4 mps 755 mmHg 85%

    17 December, Tuesday

    Time Temperature Precipitation Wind Pressure Humidity
    00:00 +5°C° 0 mm 4 mps 755 mmHg 85%
    01:00 +5°C° 0 mm 4 mps 755 mmHg 85%
    02:00 +5°C° 0 mm 4 mps 755 mmHg 85%
    03:00 +5°C° 0 mm 4 mps 755 mmHg 85%
    04:00 +4°C° 0 mm 4 mps 755 mmHg 86%
    05:00 +4°C° 0 mm 3 mps 755 mmHg 87%
    06:00 +4°C° 0 mm 3 mps 755 mmHg 89%
    07:00 +3°C° 0 mm 3 mps 755 mmHg 90%
    08:00 +4°C° 0 mm 3 mps 755 mmHg 89%
    09:00 +4°C° 0 mm 3 mps 755 mmHg 87%
    10:00 +4°C° 0 mm 3 mps 755 mmHg 86%
    11:00 +5°C° 0 mm 3 mps 755 mmHg 81%
    12:00 +7°C° 0 mm 3 mps 755 mmHg 77%
    13:00 +8°C° 0 mm 3 mps 754 mmHg 73%
    14:00 +8°C° 0 mm 3 mps 754 mmHg 75%
    15:00 +7°C° 0 mm 3 mps 754 mmHg 77%
    16:00 +7°C° 0 mm 3 mps 755 mmHg 80%
    17:00 +7°C° 0 mm 3 mps 755 mmHg 80%
    18:00 +7°C° 0 mm 3 mps 755 mmHg 81%
    19:00 +7°C° 0 mm 3 mps 755 mmHg 82%
    20:00 +5°C° 0 mm 3 mps 755 mmHg 83%
    21:00 +5°C° 0 mm 3 mps 755 mmHg 84%
    22:00 +5°C° 0 mm 3 mps 755 mmHg 85%
    23:00 +5°C° 0 mm 3 mps 755 mmHg 85%

    18 December, Wednesday

    Time Temperature Precipitation Wind Pressure Humidity
    00:00 +5°C° 0 mm 3 mps 755 mmHg 85%
    01:00 +5°C° 0 mm 3 mps 755 mmHg 85%
    02:00 +5°C° 0 mm 3 mps 755 mmHg 84%
    03:00 +5°C° 0 mm 3 mps 755 mmHg 84%
    04:00 +5°C° 0 mm 3 mps 755 mmHg 83%
    05:00 +4°C° 0 mm 3 mps 755 mmHg 85%
    06:00 +4°C° 0 mm 3 mps 755 mmHg 86%
    07:00 +4°C° 0 mm 3 mps 755 mmHg 87%
    08:00 +4°C° 0 mm 3 mps 755 mmHg 85%
    09:00 +4°C° 0 mm 3 mps 755 mmHg 84%
    10:00 +4°C° 0 mm 4 mps 755 mmHg 83%
    11:00 +5°C° 0 mm 4 mps 755 mmHg 80%
    12:00 +6°C° 0 mm 4 mps 755 mmHg 77%
    13:00 +7°C° 0 mm 4 mps 755 mmHg 74%
    14:00 +7°C° 0 mm 4 mps 755 mmHg 77%
    15:00 +6°C° 0 mm 4 mps 756 mmHg 80%
    16:00 +7°C° 0 mm 3 mps 756 mmHg 83%
    17:00 +5°C° 0 mm 4 mps 757 mmHg 86%
    18:00 +5°C° 0 mm 4 mps 757 mmHg 88%
    19:00 +5°C° 0 mm 4 mps 758 mmHg 91%
    20:00 +4°C° 0 mm 4 mps 759 mmHg 89%
    21:00 +4°C° 0 mm 3 mps 759 mmHg 88%
    22:00 +5°C° 0 mm 2 mps 759 mmHg 87%
    23:00 +4°C° 0 mm 2 mps 759 mmHg 88%
    Show more